Tracking 35274 objects as of 11-Sep-2026
HD Live streaming from Space Station
objects crossing your sky now

COSMOS 1588 DEB


COSMOS 1588 DEB is no longer on orbit


NORAD ID: 16633
Int'l Code: 1984-083J
Launch date: August 7, 1984
Source: Commonwealth of Independent States (former USSR) (CIS)
Launch site: TYURATAM MISSILE AND SPACE COMPLEX (TTMTR)
Decay date: 1988-05-30

Note: This is SATELLITE DEBRIS
Your satellite tracking list
Your tracking list is empty




NASA's NSSDC Master Catalog

Two Line Element Set (TLE):
1 16633U 84083  J 88150.46568709  .06764983 +33299-4 +23010-3 0  9991
2 16633 064.9936 311.4869 0021241 304.9463 059.6882 16.42113209215835
Source of the keplerian elements: AFSPC